Leesburg, FL

1:32 PM EDT on August 19, 2017 (GMT -0400)
Leesburg Regional

Weather History for KLEE - April, 2013

Change the Weather History Date:

Friday, April 5, 2013

  Actual Average Record
Temperature  
Mean Temperature 66 °F -  
Max Temperature 77 °F 79 °F 93 °F (2017)
Min Temperature 57 °F 57 °F 39 °F (1987)
Cooling Degree Days 1    
Growing Degree Days 16 (Base 50)    
Moisture  
Dew Point 61 °F    
Average Humidity 80    
Maximum Humidity 94    
Minimum Humidity 57    
Precipitation  
Precipitation 0.01 in - - ()
Sea Level Pressure  
Sea Level Pressure 29.90 in    
Wind  
Wind Speed 9 mph (WNW)    
Max Wind Speed 18 mph    
Max Gust Speed 23 mph    
Visibility 10 miles    
Events Rain    
Averages and records for this station are not official NWS values.
T = Trace of Precipitation, MM = Missing Value Source: NWS Daily Summary

Daily Weather History Graph

Daily Weather History Graph

Search for Another Location

Airport or City:

Trip Planner

Search our weather history database for the weather conditions in past years. The results will help you decide how hot, cold, wet, or windy it might be!

Date:

Astronomy

Apr. 05, 2013 Rise Set
Actual Time 7:12 AM EDT 7:47 PM EDT
Civil Twilight 6:48 AM EDT 8:11 PM EDT
Nautical Twilight 6:20 AM EDT 8:39 PM EDT
Astronomical Twilight 5:51 AM EDT 9:08 PM EDT
Moon 3:56 AM EDT (4/5) 3:30 PM EDT (4/5)
Length of Visible Light 13h 23m
Length of Day
12h 35m
Waning Crescent, 24% of the Moon is Illuminated
Apr 5
Waning Crescent
Apr 10
New
Apr 18
First Quarter
Apr 25
Full
May 2
Last Quarter

Hourly Weather History & Observations

Time (EDT) Temp. Dew Point Humidity Pressure Visibility Wind Dir Wind Speed Gust Speed Precip Events Conditions
12:53 AM 69.1 °F 64.0 °F 84% 29.91 in 10.0 mi SSE 4.6 mph - N/A   Mostly Cloudy
1:11 AM 69.8 °F 62.6 °F 78% 29.91 in 10.0 mi South 10.4 mph - N/A   Mostly Cloudy
1:19 AM 69.8 °F 62.6 °F 78% 29.91 in 10.0 mi South 8.1 mph - N/A   Scattered Clouds
1:53 AM 69.1 °F 63.0 °F 81% 29.91 in 10.0 mi South 8.1 mph - N/A   Mostly Cloudy
2:53 AM 68.0 °F 63.0 °F 84% 29.89 in 10.0 mi SSW 6.9 mph - N/A   Partly Cloudy
3:53 AM 66.9 °F 64.0 °F 90% 29.87 in 10.0 mi SW 4.6 mph - N/A   Scattered Clouds
4:53 AM 66.9 °F 64.0 °F 90% 29.85 in 10.0 mi West 4.6 mph - N/A   Clear
5:53 AM 66.0 °F 64.0 °F 93% 29.82 in 10.0 mi SW 5.8 mph - N/A   Clear
6:53 AM 66.0 °F 64.0 °F 93% 29.86 in 10.0 mi SW 6.9 mph - N/A   Partly Cloudy
7:05 AM 66.2 °F 64.4 °F 94% 29.86 in 10.0 mi SW 9.2 mph - N/A   Mostly Cloudy
7:46 AM 66.2 °F 62.6 °F 88% 29.87 in 10.0 mi SW 9.2 mph - N/A   Mostly Cloudy
7:53 AM 66.9 °F 63.0 °F 87% 29.87 in 10.0 mi SW 10.4 mph - N/A   Mostly Cloudy
8:53 AM 66.9 °F 64.0 °F 90% 29.89 in 9.0 mi Calm Calm - 0.00 in Rain Light Rain
9:49 AM 68.0 °F 64.4 °F 88% 29.89 in 10.0 mi WSW 5.8 mph - 0.01 in   Mostly Cloudy
9:53 AM 68.0 °F 64.0 °F 87% 29.89 in 10.0 mi WSW 9.2 mph - 0.01 in   Mostly Cloudy
10:09 AM 68.0 °F 64.4 °F 88% 29.90 in 10.0 mi West 6.9 mph - N/A   Mostly Cloudy
10:53 AM 71.1 °F 64.9 °F 81% 29.90 in 10.0 mi WSW 5.8 mph - N/A   Overcast
11:21 AM 71.6 °F 64.4 °F 78% 29.90 in 10.0 mi WNW 8.1 mph - N/A   Overcast
11:53 AM 73.0 °F 64.0 °F 73% 29.89 in 10.0 mi WNW 11.5 mph - N/A   Overcast
12:53 PM 73.0 °F 63.0 °F 71% 29.88 in 10.0 mi WNW 12.7 mph - N/A   Overcast
1:06 PM 73.4 °F 62.6 °F 69% 29.88 in 10.0 mi West 12.7 mph - N/A   Overcast
1:53 PM 73.0 °F 61.0 °F 66% 29.87 in 10.0 mi WNW 9.2 mph - N/A   Overcast
2:10 PM 73.4 °F 60.8 °F 65% 29.87 in 10.0 mi NW 11.5 mph 19.6 mph N/A   Overcast
2:22 PM 71.6 °F 60.8 °F 69% 29.87 in 10.0 mi WNW 10.4 mph 19.6 mph N/A   Overcast
2:53 PM 73.0 °F 59.0 °F 61% 29.87 in 10.0 mi WNW 11.5 mph - N/A   Overcast
3:53 PM 75.0 °F 59.0 °F 57% 29.86 in 10.0 mi WNW 10.4 mph - N/A   Mostly Cloudy
4:53 PM 75.0 °F 59.0 °F 57% 29.83 in 10.0 mi North 5.8 mph - N/A   Scattered Clouds
5:53 PM 73.9 °F 60.1 °F 62% 29.85 in 10.0 mi NNW 13.8 mph - N/A   Scattered Clouds
6:18 PM 68.0 °F 60.8 °F 78% 29.87 in 10.0 mi NE 18.4 mph - N/A   Mostly Cloudy
6:42 PM 66.2 °F 59.0 °F 78% 29.89 in 10.0 mi NNE 16.1 mph 21.9 mph N/A   Overcast
6:53 PM 64.9 °F 59.0 °F 81% 29.89 in 10.0 mi NNE 13.8 mph - N/A   Overcast
7:53 PM 62.1 °F 57.9 °F 86% 29.92 in 10.0 mi North 13.8 mph - N/A   Overcast
8:23 PM 60.8 °F 57.2 °F 88% 29.94 in 10.0 mi North 16.1 mph - N/A   Overcast
8:53 PM 60.1 °F 57.0 °F 90% 29.96 in 8.0 mi North 11.5 mph - N/A   Overcast
9:29 PM 60.8 °F 55.4 °F 82% 29.99 in 10.0 mi North 10.4 mph - N/A   Overcast
9:53 PM 60.1 °F 55.0 °F 83% 29.99 in 10.0 mi North 13.8 mph - N/A   Overcast
10:53 PM 57.9 °F 55.0 °F 90% 30.03 in 9.0 mi North 17.3 mph 23.0 mph 0.00 in Rain Light Rain
11:09 PM 57.2 °F 53.6 °F 88% 30.04 in 10.0 mi North 13.8 mph - 0.00 in   Overcast
11:53 PM 57.9 °F 53.1 °F 84% 30.04 in 10.0 mi North 10.4 mph - 0.00 in   Overcast